Date String (YYYY-MM-DD hh:mm:ss) UTC,Instrument flags,Ambient pressure (hPa),Sample flow (lpm),Bypass flow (lpm),Sample temperature (°C),Ambient temperature (°C),ASC tube jacket temperature (°C),LED temperature (°C),Box temperature (°C),Sample RH (%),Span deviation,Mass concentration (μg/m³),Mass concentration (μg/m³),Mass concentration (μg/m³)
DateTimeUTC,F1_M11,P_M11,Q1_M11,Q2_M11,T1_M11,T2_M11,T3_M11,T4_M11,T5_M11,U1_M11,ZSPAN_M11,X0_M11,X2_M11,X1_M11
2022-09-19 00:00:00,,0824.8,4.99,0.00,29.7,28.2,00.0,38.3,31.5,21.2,0000.0,0014.69,0005.70,0004.94
2022-09-19 00:01:00,,0824.8,5.02,0.00,29.8,28.4,00.0,38.4,31.6,21.5,0000.0,0014.84,0005.71,0004.92
2022-09-19 00:02:00,,0824.6,4.99,0.00,29.8,28.6,00.0,38.4,31.7,21.6,0000.0,0015.01,0005.69,0004.90
2022-09-19 00:03:00,,0824.7,5.01,0.00,29.9,28.7,00.0,38.4,31.8,21.6,0000.0,0015.95,0005.68,0004.89
2022-09-19 00:04:00,,0824.6,5.00,0.00,29.9,28.0,00.0,38.4,31.8,21.2,0000.0,0015.60,0005.67,0004.88
2022-09-19 00:05:00,,0824.6,5.00,0.00,29.9,26.8,00.0,38.4,31.7,21.0,0000.0,0014.83,0005.69,0004.87
2022-09-19 00:06:00,,0824.6,5.00,0.00,29.8,26.5,00.0,38.4,31.6,21.1,0000.0,0015.06,0005.77,0004.87
2022-09-19 00:07:00,,0824.6,5.00,0.00,29.7,26.8,00.0,38.3,31.5,21.1,0000.0,0015.13,0005.80,0004.87
2022-09-19 00:08:00,,0824.7,5.00,0.00,29.7,27.1,00.0,38.3,31.4,21.0,0000.0,0014.89,0005.83,0004.87
2022-09-19 00:09:00,,0824.6,5.00,0.00,29.7,27.4,00.0,38.3,31.4,21.2,0000.0,0015.23,0005.84,0004.87
2022-09-19 00:10:00,,0824.7,4.99,0.00,29.7,27.7,00.0,38.3,31.4,20.9,0002.0,0015.41,0005.85,0004.86
2022-09-19 00:11:00,,0824.5,5.02,0.00,29.7,28.0,00.0,38.3,31.5,21.0,0001.6,0014.70,0005.86,0004.85
2022-09-19 00:12:00,,0824.7,5.00,0.00,29.7,28.2,00.0,38.3,31.6,21.1,0001.4,0015.17,0005.87,0004.85
2022-09-19 00:13:00,,0824.9,5.01,0.00,29.8,28.4,00.0,38.4,31.7,21.3,0001.1,0014.90,0005.89,0004.85
2022-09-19 00:14:00,,0824.7,5.01,0.00,29.8,28.6,00.0,38.4,31.7,21.1,0001.3,0014.66,0005.90,0004.84
2022-09-19 00:15:00,,0824.6,5.00,0.00,29.9,28.7,00.0,38.4,31.8,21.0,0001.6,0014.59,0005.86,0004.82
2022-09-19 00:16:00,,0824.6,5.00,0.00,29.9,28.3,00.0,38.4,31.9,20.8,0000.9,0014.74,0005.84,0004.81
2022-09-19 00:17:00,,0824.6,5.01,0.00,29.9,27.1,00.0,38.4,31.8,20.8,0000.4,0014.42,0005.82,0004.79
2022-09-19 00:18:00,,0824.6,5.00,0.00,29.9,26.5,00.0,38.4,31.7,20.8,0000.3,0014.19,0005.80,0004.79
2022-09-19 00:19:00,,0824.6,5.00,0.00,29.8,26.7,00.0,38.4,31.6,20.9,0000.0,0014.43,0005.77,0004.78
2022-09-19 00:20:00,,0824.6,4.99,0.00,29.7,27.0,00.0,38.3,31.4,20.9,0000.0,0013.42,0005.75,0004.77
2022-09-19 00:21:00,,0824.7,5.00,0.00,29.7,27.3,00.0,38.3,31.4,21.0,0000.0,0013.32,0005.74,0004.77
2022-09-19 00:22:00,,0824.6,5.01,0.00,29.7,27.6,00.0,38.3,31.4,21.2,0000.0,0013.98,0005.72,0004.76
2022-09-19 00:23:00,,0824.7,5.00,0.00,29.7,27.9,00.0,38.3,31.4,21.2,0000.0,0013.30,0005.67,0004.75
2022-09-19 00:24:00,,0824.6,4.99,0.00,29.7,28.1,00.0,38.4,31.5,20.9,0000.0,0013.28,0005.65,0004.74
2022-09-19 00:25:00,,0824.5,5.00,0.00,29.8,28.3,00.0,38.4,31.6,21.3,0000.0,0013.30,0005.61,0004.73
2022-09-19 00:26:00,,0824.6,5.01,0.00,29.8,28.5,00.0,38.4,31.7,21.1,0000.0,0013.21,0005.62,0004.73
2022-09-19 00:27:00,,0824.6,4.99,0.00,29.9,28.7,00.0,38.4,31.8,20.8,0000.0,0013.07,0005.61,0004.73
2022-09-19 00:28:00,,0824.7,4.99,0.00,29.9,28.6,00.0,38.5,31.9,20.9,0000.0,0012.95,0005.59,0004.73
2022-09-19 00:29:00,,0824.7,5.01,0.00,29.9,27.4,00.0,38.4,31.8,20.9,0000.0,0012.72,0005.55,0004.72
2022-09-19 00:30:00,,0824.8,5.00,0.00,29.9,26.3,00.0,38.4,31.7,21.4,0000.0,0012.35,0005.55,0004.72
2022-09-19 00:31:00,,0824.7,4.99,0.00,29.8,26.4,00.0,38.4,31.6,21.0,0000.0,0012.34,0005.58,0004.73
2022-09-19 00:32:00,,0824.6,5.00,0.00,29.7,26.7,00.0,38.3,31.3,20.9,0000.0,0011.91,0005.57,0004.74
2022-09-19 00:33:00,,0824.7,5.00,0.00,29.7,27.1,00.0,38.3,31.3,21.0,0000.0,0011.03,0005.55,0004.76
2022-09-19 00:34:00,,0824.6,5.00,0.00,29.6,27.4,00.0,38.3,31.3,21.3,0000.0,0011.03,0005.57,0004.76
2022-09-19 00:35:00,,0824.6,5.01,0.00,29.7,27.7,00.0,38.3,31.4,21.5,0000.0,0011.60,0005.56,0004.76
2022-09-19 00:36:00,,0824.6,4.99,0.00,29.7,28.0,00.0,38.3,31.5,20.9,0000.0,0012.31,0005.57,0004.76
2022-09-19 00:37:00,,0824.7,5.02,0.00,29.7,28.2,00.0,38.3,31.6,20.3,0000.0,0012.65,0005.57,0004.76
2022-09-19 00:38:00,,0824.6,4.99,0.00,29.8,28.4,00.0,38.4,31.7,20.4,0000.0,0013.02,0005.54,0004.75
2022-09-19 00:39:00,,0824.8,4.99,0.00,29.8,28.6,00.0,38.4,31.7,20.3,0000.0,0012.85,0005.49,0004.74
2022-09-19 00:40:00,,0824.7,5.01,0.00,29.8,28.7,00.0,38.4,31.8,20.3,0000.0,0013.19,0005.47,0004.72
2022-09-19 00:41:00,,0824.8,5.01,0.00,29.9,28.3,00.0,38.4,31.8,20.0,0000.0,0013.07,0005.48,0004.71
2022-09-19 00:42:00,,0824.9,5.00,0.00,29.9,27.0,00.0,38.4,31.7,19.6,0000.0,0013.01,0005.45,0004.69
2022-09-19 00:43:00,,0824.7,5.00,0.00,29.8,26.2,00.0,38.4,31.6,19.8,0000.0,0013.30,0005.44,0004.68
2022-09-19 00:44:00,,0824.7,5.00,0.00,29.8,26.4,00.0,38.3,31.5,20.4,0000.0,0013.30,0005.43,0004.66
2022-09-19 00:45:00,,0824.6,5.00,0.00,29.7,26.7,00.0,38.3,31.3,20.5,0000.0,0013.24,0005.42,0004.66
2022-09-19 00:46:00,,0824.6,4.99,0.00,29.6,27.1,00.0,38.3,31.3,20.9,0000.0,0013.45,0005.37,0004.65
2022-09-19 00:47:00,,0824.6,5.01,0.00,29.6,27.4,00.0,38.3,31.3,20.6,0000.0,0012.83,0005.34,0004.64
2022-09-19 00:48:00,,0824.6,5.01,0.00,29.6,27.7,00.0,38.3,31.4,20.6,0000.0,0013.23,0005.34,0004.64
2022-09-19 00:49:00,,0824.6,5.00,0.00,29.6,28.0,00.0,38.3,31.5,20.8,0000.0,0013.50,0005.37,0004.64
2022-09-19 00:50:00,,0824.6,5.00,0.00,29.7,28.2,00.0,38.3,31.5,21.4,0000.0,0013.96,0005.36,0004.63
2022-09-19 00:51:00,,0824.8,5.00,0.00,29.7,28.4,00.0,38.4,31.6,20.8,0000.0,0014.52,0005.40,0004.63
2022-09-19 00:52:00,,0824.6,5.01,0.00,29.7,28.5,00.0,38.4,31.6,21.5,0000.0,0015.00,0005.38,0004.63
2022-09-19 00:53:00,,0824.6,5.00,0.00,29.8,28.6,00.0,38.4,31.7,21.5,0000.0,0015.77,0005.34,0004.62
2022-09-19 00:54:00,,0824.7,4.99,0.00,29.8,28.8,00.0,38.4,31.8,20.7,0000.0,0015.74,0005.31,0004.61
2022-09-19 00:55:00,,0824.6,5.02,0.00,29.9,28.8,00.0,38.5,31.9,21.1,0000.0,0015.98,0005.30,0004.62
2022-09-19 00:56:00,,0824.6,4.98,0.00,29.9,27.6,00.0,38.5,31.8,20.0,0000.0,0016.73,0005.28,0004.60
2022-09-19 00:57:00,,0824.6,5.01,0.00,29.8,26.5,00.0,38.4,31.7,20.1,0000.0,0017.24,0005.29,0004.59
2022-09-19 00:58:00,,0824.7,5.00,0.00,29.8,26.3,00.0,38.4,31.6,20.4,0000.0,0016.35,0005.32,0004.58
2022-09-19 00:59:00,,0824.7,5.00,0.00,29.7,26.6,00.0,38.3,31.4,20.6,0000.0,0015.80,0005.28,0004.56
